User: anonymous   Login
Location: Raven Hill Discovery Center
(45.1336°N, 85.0553°W)
Time: 07:29:20
(UTC-05:00)
Language:

Cosmos 1470 - Orbit

View from above orbital plane
View from above orbital plane
View from above satellite
View from above satellite

Ground track
Ground track

The orbit data is extracted from the following two-line orbital elements,

1 14147U 83061A   17345.81861781 +.00001083 +00000-0 +63233-4 0  9998
2 14147 082.4837 224.5267 0016319 017.0039 343.1734 15.10805427631355
Epoch (UTC): 11 December 2017 19:38:48
Eccentricity: 0.0016319
inclination: 82.4837°
perigee height: 522 km
apogee height: 545 km
right ascension of ascending node: 224.5267°
argument of perigee: 17.0039°
revolutions per day: 15.10805427
mean anomaly at epoch: 343.1734°
orbit number at epoch: 63135

The dashed part of the orbit path shows where the satellite is in the earth's shadow,  

DLR